Torna al catalogo

FENGYUN 1C DEB

AttivoSSO
NORAD 30514·DEBRIS·🇨🇳 China

Lanciato May 10, 1999 da Taiyuan Satellite Launch Center

Loading…

Prossimi Passaggi (prossime 24 ore)

TLE

AggiornatoSource: Space-Track

Epoca: Sep 14, 2026, 19:40 UTC

1 30514U 99025AJC 26257.81989209  .00001125  00000-0  34754-3 0  9991
2 30514  98.3936 279.0638 0171147 351.9160   7.9275 14.35223371 21828

Traccia FENGYUN 1C DEB in tempo reale con AllMySat

Download on the App Store